Change the Weather History Date:

Tuesday, May 7, 2013

  Actual Average Record
Temperature  
Mean Temperature 77 °F 80 °F  
Max Temperature 84 °F 85 °F 89 °F (1998)
Min Temperature 69 °F 75 °F 69 °F (2013)
Degree Days  
Heating Degree Days 0 0  
Month to date heating degree days 0 0  
Since 1 July heating degree days 36 81  
Cooling Degree Days 12 15  
Month to date cooling degree days 96 100  
Year to date cooling degree days 1394 1136  
Growing Degree Days 27 (Base 50)    
Moisture  
Dew Point 62 °F    
Average Humidity 60    
Maximum Humidity 73    
Minimum Humidity 47    
Precipitation  
Precipitation 0.00 in 0.10 in 0.10 in (2003)
Month to date precipitation 3.85 0.66  
Year to date precipitation 11.74 9.25  
Snow  
Snow 0.00 in - - ()
Month to date snowfall 0.0  
Since 1 July snowfall 0.0  
Snow Depth 0.00 in    
Sea Level Pressure  
Sea Level Pressure 30.04 in    
Wind  
Wind Speed 4 mph (NW)    
Max Wind Speed 10 mph    
Max Gust Speed 12 mph    
Visibility 10 miles    
Events      
T = Trace of Precipitation, MM = Missing Value Source: NWS Daily Summary

Daily Weather History Graph

Daily Weather History Graph

Search for Another Location

Airport or City:

Trip Planner

Search our weather history database for the weather conditions in past years. The results will help you decide how hot, cold, wet, or windy it might be!

Date:

Astronomy

May. 07, 2013 Rise Set
Actual Time 6:44 AM EDT 7:57 PM EDT
Civil Twilight 6:20 AM EDT 8:21 PM EDT
Nautical Twilight 5:51 AM EDT 8:50 PM EDT
Astronomical Twilight 5:21 AM EDT 9:20 PM EDT
Moon 5:04 AM EDT (5/7) 6:05 PM EDT (5/7)
Length of Visible Light 14h 01m
Length of Day
13h 12m
Waning Crescent, 5% of the Moon is Illuminated
May 7
Waning Crescent
May 9
New
May 18
First Quarter
May 25
Full
May 31
Last Quarter

Hourly Weather History & Observations

Time (EDT) Temp. Heat Index Dew Point Humidity Pressure Visibility Wind Dir Wind Speed Gust Speed Precip Events Conditions
12:53 AM 72.0 °F - 61.0 °F 68% 30.02 in 10.0 mi Calm Calm - N/A   Clear
1:53 AM 71.1 °F - 61.0 °F 70% 30.00 in 10.0 mi Calm Calm - N/A   Clear
2:53 AM 71.1 °F - 61.0 °F 70% 29.99 in 10.0 mi Calm Calm - N/A   Clear
4:53 AM 70.0 °F - 61.0 °F 73% 29.99 in 10.0 mi Calm Calm - N/A   Clear
5:53 AM 73.9 °F - 62.1 °F 66% 30.00 in 10.0 mi West 6.9 mph - N/A   Clear
6:53 AM 75.0 °F - 62.1 °F 64% 30.02 in 10.0 mi WNW 4.6 mph - N/A   Clear
7:53 AM 78.1 °F - 63.0 °F 60% 30.04 in 10.0 mi WNW 3.5 mph - N/A   Clear
8:53 AM 80.1 °F 81.2 °F 62.1 °F 54% 30.06 in 10.0 mi WNW 4.6 mph - N/A   Clear
9:53 AM 81.0 °F 81.9 °F 62.1 °F 52% 30.06 in 10.0 mi Variable 5.8 mph - N/A   Clear
10:53 AM 81.0 °F 82.2 °F 63.0 °F 54% 30.06 in 10.0 mi NW 4.6 mph - N/A   Clear
11:53 AM 82.0 °F 83.4 °F 64.0 °F 54% 30.07 in 10.0 mi Variable 4.6 mph - N/A   Clear
12:53 PM 82.0 °F 83.4 °F 64.0 °F 54% 30.06 in 10.0 mi Variable 3.5 mph - N/A   Clear
1:53 PM 82.9 °F 84.4 °F 64.0 °F 53% 30.05 in 10.0 mi Variable 4.6 mph - N/A   Clear
2:53 PM 84.0 °F 85.4 °F 64.0 °F 51% 30.04 in 10.0 mi NW 5.8 mph - N/A   Clear
3:53 PM 84.0 °F 85.4 °F 64.0 °F 51% 30.02 in 10.0 mi Variable 5.8 mph - N/A   Partly Cloudy
4:53 PM 82.9 °F 83.3 °F 61.0 °F 47% 30.02 in 10.0 mi WNW 8.1 mph - N/A   Clear
5:53 PM 81.0 °F 81.9 °F 62.1 °F 52% 30.02 in 10.0 mi Variable 4.6 mph - N/A   Clear
6:53 PM 79.0 °F - 62.1 °F 56% 30.03 in 10.0 mi Variable 3.5 mph - N/A   Clear
7:53 PM 77.0 °F - 62.1 °F 60% 30.04 in 10.0 mi NW 3.5 mph - N/A   Clear
8:53 PM 77.0 °F - 63.0 °F 62% 30.06 in 10.0 mi NNW 4.6 mph - N/A   Partly Cloudy
9:53 PM 77.0 °F - 63.0 °F 62% 30.07 in 10.0 mi North 4.6 mph - N/A   Clear
10:53 PM 75.9 °F - 62.1 °F 62% 30.09 in 10.0 mi North 4.6 mph - N/A   Scattered Clouds
11:53 PM 75.9 °F - 63.0 °F 64% 30.09 in 10.0 mi Variable 3.5 mph - N/A   Clear